Regional Weather Roundup
Issued by NWS

Home | Current Version | Previous Version | Graphics & Text | Print | Product List | Glossary On
Versions: 1 2 3 4 5 6 7 8 9 10 11 12 13 14 15 16 17 18 19 20 21 22 23 24 25 26 27 28 29 30 31 32 33 34 35 36 37 38 39 40 41 42 43 44 45 46 47 48 49 50
000
ASUS45 KABQ 281301
RWRNM
NEW MEXICO REGIONAL WEATHER ROUNDUP
NATIONAL WEATHER SERVICE ALBUQUERQUE NM
700 AM MDT FRI AUG 28 2015

NOTE: "FAIR" MEANS FEW OR NO CLOUDS BELOW 12,000 FEET AGL WITH NO
       SIGNIFICANT WEATHER OR OBSTRUCTIONS TO VISION.

      THIS PRODUCT IS RELEASED AS TWO VERSIONS.  ONE VERSION NEAR
      THE TOP OF THE HOUR CONTAINING PRELIMINARY DATA FROM ALBUQUERQUE
      AND OTHER STATIONS.  A FINAL VERSION WITH ADDITIONAL DATA IS
      ISSUED ABOUT 10 MINUTES AFTER THE HOUR.

NMZ501-503-504-510>518-281400-
NORTHWEST PLATEAU/NORTHCENTRAL MOUNTAINS

CITY           SKY/WX    TMP DP  RH WIND       PRES   REMARKS
FARMINGTON     CLEAR     55  51  86 E6        30.22R
SANTA FE       CLEAR     56  49  77 N6        30.26R
TAOS           PTCLDY    48  37  66 CALM      30.35R

$$
NMZ402-403-502-505>509-281400-
WESTCENTRAL MOUNTAINS/SOUTHWEST MOUNTAINS

CITY           SKY/WX    TMP DP  RH WIND       PRES   REMARKS
GALLUP         CLEAR     51  50  96 CALM      30.31R
GRANTS         CLEAR     50  50 100 CALM      30.32S FOG
SILVER CITY      N/A     63  54  72 NW9       30.22R

$$
NMZ407-409-411-412-281400-
SOUTHERN DESERTS

CITY           SKY/WX    TMP DP  RH WIND       PRES   REMARKS
DEMING         CLEAR     64  57  78 E3        30.13R
HOLLOMAN AFB   CLEAR     68  54  59 N2        30.08R
ALAMOGORDO     CLEAR     68  54  60 CALM      30.10R
T OR C         CLEAR     68  53  58 NW8       30.15R

$$
NMZ519>523-281400-
CENTRAL VALLEYS/CENTRAL HIGHLANDS

CITY           SKY/WX    TMP DP  RH WIND       PRES   REMARKS
ALBUQUERQUE    PTCLDY    65  54  67 CALM      30.22R
DOUBLE EAGLE   MOCLDY    54  50  87 W3        30.25R
MORIARTY ARPT  FAIR      54  49  84 SW5       30.28R
CLINES CORNERS CLEAR     59  50  72 NW7       30.29S
BELEN          FAIR      62  56  79 CALM      30.21R
SOCORRO        NOT AVBL

$$
NMZ524>526-539-540-281400-
SOUTHCENTRAL MOUNTAINS

CITY           SKY/WX    TMP DP  RH WIND       PRES   REMARKS
RUIDOSO        PTCLDY    63  50  63 MISG      30.30S

$$
NMZ527>531-281400-
NORTHEAST HIGHLANDS/NORTHEAST PLAINS

CITY           SKY/WX    TMP DP  RH WIND       PRES   REMARKS
LAS VEGAS      PTCLDY    55  47  74 N7        30.30R
RATON          MOCLDY    54  51  90 NE7       30.26R
CLAYTON        PTCLDY    64  56  75 N7        30.16R

$$
NMZ532>537-281400-
EASTCENTRAL PLAINS

CITY           SKY/WX    TMP DP  RH WIND       PRES   REMARKS
TUCUMCARI      CLEAR     64  58  80 CALM      30.08R
CANNON AFB     PTCLDY    67  55  65 N6        30.09R
CLOVIS AIRPORT PTCLDY    66  54  63 NW8       30.10R

$$
NMZ028-029-538-281400-
SOUTHEAST PLAINS

CITY           SKY/WX    TMP DP  RH WIND       PRES   REMARKS
ROSWELL        PTCLDY    68  59  73 N8        30.06R
ARTESIA        PTCLDY    70  57  64 NW6       30.06R
CARLSBAD       NOT AVBL
HOBBS          CLEAR     66  54  63 S5        30.08


$$


USA.gov is the U.S. government's official web portal to all federal, state and local government web resources and services.